1328140828939,139.694
1328140888939,139.505
1328140948939,139.465
1328141008939,139.515
1328141068939,139.591
1328141128939,139.391
1328141188939,139.053
1328141248939,139.394
1328141308939,139.433
1328141368939,139.298
1328141428939,139.517
1328141488939,139.364
1328141548939,139.596
1328141608939,139.449
1328141668939,139.431
1328141728939,139.363
1328141788939,139.581
1328141848939,139.471
1328141908939,139.168
1328141968939,139.589
1328142028939,139.578
1328142088939,139.740
1328142148939,139.393
1328142208939,139.482
1328142268939,139.324
1328142328939,139.381
1328142388939,139.209
1328142448939,139.650
1328142508939,139.581
1328142568939,139.455
1328142628939,139.373
1328142688939,139.479
1328142748939,139.616
1328142808939,139.652
1328142868939,139.607
1328142928939,139.263
1328142988939,139.695
1328143048939,139.286
1328143108939,139.264
1328143168939,139.504
1328143228939,139.556
1328143288939,139.516
1328143348939,139.302
1328143408939,139.343
1328143468939,139.699
1328143528939,139.392
1328143588939,139.242
1328143648939,139.237
1328143708939,139.385
1328143768939,139.472
1328143828939,139.254
1328143888939,139.453
1328143948939,139.421
1328144008939,139.377
1328144068939,139.681
1328144128939,139.547
1328144188939,139.178
1328144248939,139.187
1328144308939,139.324
1328144368939,138.948
1328144428949,139.441
1328144488949,139.115
1328144548949,139.196
1328144608949,139.292
1328144668949,139.452
1328144728949,139.033
1328144788949,139.111
1328144848949,139.438
1328144908949,139.008
1328144968949,139.095
1328145028949,139.014
1328145088949,139.224
1328145148949,139.130
1328145208949,139.007
1328145268949,139.015
1328145328949,139.274
1328145388949,139.119
1328145448949,139.146
1328145508949,138.940
1328145568949,138.927
1328145628949,139.147
1328145688949,139.138
1328145748949,139.040
1328145808949,139.106
1328145868949,139.018
1328145928949,139.119
1328145988949,139.183
1328146048949,139.068
1328146108949,139.109
1328146168949,138.939
1328146228949,139.095
1328146288949,139.102
1328146348949,139.324
1328146408949,139.286
1328146468949,139.122
1328146528949,139.259
1328146588949,139.024
1328146648949,138.982
1328146708949,139.020
1328146768949,139.007
1328146828949,139.125
1328146888949,138.806
1328146948949,139.347
1328147008949,138.855
1328147068949,138.961
1328147128949,139.083
1328147188949,139.384
1328147248949,138.736
1328147308949,138.921
1328147368949,138.860
1328147428949,138.834
1328147488949,138.903
1328147548949,138.725
1328147608949,138.666
1328147668949,138.856
1328147728949,139.113
1328147788949,138.930
1328147848949,138.892
1328147908949,139.284
1328147968949,138.816
1328148028960,138.945
1328148088960,138.660
1328148148960,138.965
1328148208960,138.618
1328148268960,138.640
1328148328960,138.730
1328148388960,138.849
1328148448960,138.707
1328148508960,138.856
1328148568960,138.991
1328148628960,138.547
1328148688960,138.743
1328148748960,138.564
1328148808960,138.759
1328148868960,138.440
1328148928960,138.684
1328148988960,138.557
1328149048960,138.904
1328149108960,138.652
1328149168960,138.866
1328149228960,138.709
1328149288960,138.604
1328149348960,138.456
1328149408960,138.622
1328149468960,138.499
1328149528960,138.397
1328149588960,138.682
1328149648960,138.632
1328149708960,138.356
1328149768960,138.316
1328149828960,138.510
1328149888960,138.317
1328149948960,138.266
1328150008960,138.219
1328150068960,138.487
1328150128960,138.193
1328150188960,138.162
1328150248960,138.423
1328150308960,138.091
1328150368960,138.704
1328150428960,138.210
1328150488960,138.169
1328150548960,138.430
1328150608960,138.779
1328150668960,138.339
1328150728960,138.240
1328150788960,138.233
1328150848960,138.570
1328150908960,138.309
1328150968960,138.297
1328151028960,138.224
1328151088960,138.312
1328151148960,138.166
1328151208960,138.221
1328151268960,138.427
1328151328960,138.503
1328151388960,138.363
1328151448960,138.263
1328151508960,138.599
1328151568960,137.955
1328151628970,138.254
1328151688970,138.438
1328151748970,138.181
1328151808970,138.159
1328151868970,138.288
1328151928970,138.264
1328151988970,137.947
1328152048970,137.939
1328152108970,138.181
1328152168970,137.920
1328152228970,138.048
1328152288970,138.180
1328152348970,138.472
1328152408970,137.711
1328152468970,138.198
1328152528970,138.355
1328152588970,138.255
1328152648970,138.048
1328152708970,138.016
1328152768970,138.245
1328152828970,137.978
1328152888970,137.658
1328152948970,138.235
1328153008970,137.946
1328153068970,138.319
1328153128970,138.042
1328153188970,138.065
1328153248970,137.994
1328153308970,138.269
1328153368970,138.224
1328153428970,137.864
1328153488970,138.093
1328153548970,137.746
1328153608970,137.994
1328153668970,138.055
1328153728970,138.014
1328153788970,138.014
1328153848970,137.821
1328153908970,138.077
1328153968970,137.949
1328154028970,137.940
1328154088970,137.888
1328154148970,137.926
1328154208970,137.916
1328154268970,138.024
1328154328970,138.181
1328154388970,137.826
1328154448970,137.874
1328154508970,137.896
1328154568970,138.011
1328154628970,138.029
1328154688970,137.965
1328154748970,137.876
1328154808970,138.054
1328154868970,138.004
1328154928970,138.020
1328154988970,137.859
1328155048970,137.894
1328155108970,137.713
1328155168970,137.947
1328155228981,137.964
1328155288981,137.896
1328155348981,137.754
1328155408981,137.913
1328155468981,137.830
1328155528981,137.651
1328155588981,138.163
1328155648981,137.980
1328155708981,137.669
1328155768981,137.998
1328155828981,138.146
1328155888981,138.028
1328155948981,137.869
1328156008981,137.967
1328156068981,138.133
1328156128981,138.031
1328156188981,138.126
1328156248981,137.916
1328156308981,138.100
1328156368981,138.027
1328156428981,138.004
1328156488981,138.057
1328156548981,137.905
1328156608981,138.101
1328156668981,138.213
1328156728981,138.212
1328156788981,137.771
1328156848981,138.054
1328156908981,138.098
1328156968981,138.097
1328157028981,138.326
1328157088981,138.157
1328157148981,138.219
1328157208981,138.360
1328157268981,137.922
1328157328981,138.170
1328157388981,138.152
1328157448981,138.396
1328157508981,138.108
1328157568981,138.242
1328157628981,138.224
1328157688981,138.121
1328157748981,138.384
1328157808981,138.212
1328157868981,138.282
1328157928981,138.131
1328157988981,138.261
1328158048981,138.257
1328158108981,138.673
1328158168981,138.137
1328158228981,137.983
1328158288981,138.258
1328158348981,138.435
1328158408981,138.254
1328158468981,138.016
1328158528981,138.217
1328158588981,138.239
1328158648981,138.222
1328158708981,138.144
1328158768981,138.056
1328158828992,138.215
1328158888992,138.403
1328158948992,138.624
1328159008992,138.028
1328159068992,138.296
1328159128992,138.365
1328159188992,138.367
1328159248992,138.413
1328159308992,138.430
1328159368992,138.227
1328159428992,138.252
1328159488992,138.168
1328159548992,138.301
1328159608992,137.982
1328159668992,138.495
1328159728992,138.587
1328159788992,138.250
1328159848992,138.245
1328159908992,138.363
1328159968992,138.191
1328160028992,138.029
1328160088992,138.277
1328160148992,138.282
1328160208992,138.323
1328160268992,138.226
1328160328992,138.105
1328160388992,138.232
1328160448992,138.288
1328160508992,138.416
1328160568992,138.333
1328160628992,138.193
1328160688992,138.437
1328160748992,138.330
1328160808992,138.620
1328160868992,138.558
1328160928992,138.290
1328160988992,138.425
1328161048992,138.525
1328161108992,138.510
1328161168992,138.469
1328161228992,138.176
1328161288992,138.550
1328161348992,138.424
1328161408992,138.392
1328161468992,138.379
1328161528992,138.525
1328161588992,138.746
1328161648992,138.771
1328161708992,138.398
1328161768992,138.545
1328161828992,138.604
1328161888992,138.500
1328161948992,138.556
1328162008992,138.667
1328162068992,138.606
1328162128992,138.549
1328162188992,138.596
1328162248992,138.276
1328162308992,138.503
1328162368992,138.471
1328162429003,138.430
1328162489003,138.523
1328162549003,138.684
1328162609003,138.395
1328162669003,138.511
1328162729003,138.402
1328162789003,138.457
1328162849003,138.321
1328162909003,138.260
1328162969003,138.236
1328163029003,138.159
1328163089003,138.595
1328163149003,138.299
1328163209003,138.260
1328163269003,138.215
1328163329003,138.583
1328163389003,138.402
1328163449003,138.249
1328163509003,138.237
1328163569003,138.365
1328163629003,138.316
1328163689003,138.371
1328163749003,138.399
1328163809003,138.491
1328163869003,138.444
1328163929003,138.472
1328163989003,138.484
1328164049003,138.404
1328164109003,138.469
1328164169003,138.381
1328164229003,138.320
1328164289003,138.383
1328164349003,138.215
1328164409003,138.168
1328164469003,138.642
1328164529003,138.485
1328164589003,138.386
1328164649003,138.323
1328164709003,138.638
1328164769003,138.650
1328164829003,138.482
1328164889003,138.168
1328164949003,138.382
1328165009003,138.422
1328165069003,138.259
1328165129003,138.394
1328165189003,138.464
1328165249003,138.653
1328165309003,138.410
1328165369003,138.173
1328165429003,138.670
1328165489003,138.508
1328165549003,138.569
1328165609003,138.812
1328165669003,138.403
1328165729003,138.354
1328165789003,138.681
1328165849003,138.430
1328165909003,138.454
1328165969003,138.423
1328166029014,138.435
1328166089014,138.556
1328166149014,138.755
1328166209014,138.725
1328166269014,138.632
1328166329014,138.365
1328166389014,138.591
1328166449014,138.287
1328166509014,138.459
1328166569014,138.606
1328166629014,138.673
1328166689014,138.578
1328166749014,138.682
1328166809014,138.564
1328166869014,138.374
1328166929014,138.339
1328166989014,138.592
1328167049014,138.562
1328167109014,138.659
1328167169014,138.788
1328167229014,138.859
1328167289014,138.663
1328167349014,138.358
1328167409014,138.615
1328167469014,138.733
1328167529014,138.790
1328167589014,138.897
1328167649014,138.734
1328167709014,138.409
1328167769014,138.612
1328167829014,138.826
1328167889014,138.529
1328167949014,138.635
1328168009014,138.947
1328168069014,139.124
1328168129014,138.880
1328168189014,138.948
1328168249014,138.720
1328168309014,138.732
1328168369014,138.493
1328168429014,138.628
1328168489014,138.689
1328168549014,138.883
1328168609014,138.549
1328168669014,138.813
1328168729014,138.803
1328168789014,139.070
1328168849014,138.929
1328168909014,138.815
1328168969014,138.475
1328169029014,138.843
1328169089014,138.785
1328169149014,139.258
1328169209014,138.708
1328169269014,138.501
1328169329014,138.801
1328169389014,138.905
1328169449014,138.616
1328169509014,138.767
1328169569014,138.547
1328169629025,138.715
1328169689025,138.505
1328169749025,138.817
1328169809025,138.764
1328169869025,138.833
1328169929025,138.661
1328169989025,138.567
1328170049025,138.697
1328170109025,138.896
1328170169025,138.618
1328170229025,138.787
1328170289025,138.892
1328170349025,138.608
1328170409025,138.549
1328170469025,138.666
1328170529025,138.880
1328170589025,138.910
1328170649025,138.857
1328170709025,138.776
1328170769025,138.825
1328170829025,138.772
1328170889025,138.714
1328170949025,138.916
1328171009025,138.861
1328171069025,138.666
1328171129025,138.589
1328171189025,139.059
1328171249025,138.840
1328171309025,139.261
1328171369025,138.785
1328171429025,138.970
1328171489025,139.005
1328171549025,138.902
1328171609025,139.064
1328171669025,139.074
1328171729025,139.159
1328171789025,139.056
1328171849025,139.204
1328171909025,138.934
1328171969025,139.233
1328172029025,139.099
1328172089025,138.939
1328172149025,138.860
1328172209025,138.764
1328172269025,138.881
1328172329025,139.287
1328172389025,139.049
1328172449025,138.902
1328172509025,139.049
1328172569025,139.085
1328172629025,138.947
1328172689025,139.236
1328172749025,138.765
1328172809025,139.248
1328172869025,139.128
1328172929025,139.094
1328172989025,139.022
1328173049025,138.977
1328173109025,139.136
1328173169025,139.055
1328173229036,139.211
1328173289036,139.034
1328173349036,138.959
1328173409036,139.130
1328173469036,139.090
1328173529036,139.302
1328173589036,139.111
1328173649036,138.984
1328173709036,139.245
1328173769036,139.092
1328173829036,139.126
1328173889036,139.297
1328173949036,139.644
1328174009036,139.285
1328174069036,139.152
1328174129036,139.010
1328174189036,139.296
1328174249036,139.238
1328174309036,139.000
1328174369036,138.972
1328174429036,138.980
1328174489036,139.070
1328174549036,139.139
1328174609036,139.052
1328174669036,138.926
1328174729036,139.058
1328174789036,138.974
1328174849036,139.063
1328174909036,139.136
1328174969036,139.000
1328175029036,139.178
1328175089036,139.333
1328175149036,138.960
1328175209036,139.374
1328175269036,139.095
1328175329036,139.361
1328175389036,139.346
1328175449036,139.290
1328175509036,139.535
1328175569036,139.319
1328175629036,139.455
1328175689036,139.734
1328175749036,139.571
1328175809036,139.580
1328175869036,139.510
1328175929036,139.706
1328175989036,139.528
1328176049036,139.498
1328176109036,139.806
1328176169036,139.656
1328176229036,139.360
1328176289036,139.912
1328176349036,139.581
1328176409036,139.760
1328176469036,139.809
1328176529036,140.128
1328176589036,139.845
1328176649036,139.785
1328176709036,140.006
1328176769036,139.735
1328176829048,139.778
1328176889048,139.833
1328176949048,139.994
1328177009048,139.733
1328177069048,140.091
1328177129048,140.045
1328177189048,139.945
1328177249048,140.208
1328177309048,139.550
1328177369048,140.066
1328177429048,140.138
1328177489048,140.180
1328177549048,139.842
1328177609048,140.067
1328177669048,140.406
1328177729048,140.121
1328177789048,139.990
1328177849048,140.430
1328177909048,140.165
1328177969048,140.461
1328178029048,140.537
1328178089048,140.437
1328178149048,140.637
1328178209048,140.478
1328178269048,140.557
1328178329048,140.371
1328178389048,140.696
1328178449048,140.376
1328178509048,140.552
1328178569048,140.699
1328178629048,140.737
1328178689048,140.721
1328178749048,140.924
1328178809048,140.552
1328178869048,140.615
1328178929048,140.484
1328178989048,140.706
1328179049048,140.718
1328179109048,140.590
1328179169048,140.179
1328179229048,140.398
1328179289048,140.617
1328179349048,140.547
1328179409048,140.141
1328179469048,140.651
1328179529048,140.538
1328179589048,140.583
1328179649048,140.471
1328179709048,140.623
1328179769048,140.382
1328179829048,140.439
1328179889048,140.477
1328179949048,140.486
1328180009048,140.349
1328180069048,140.330
1328180129048,140.226
1328180189048,140.204
1328180249048,140.069
1328180309048,140.197
1328180369048,140.255
1328180429059,140.233
1328180489059,140.127
1328180549059,140.613
1328180609059,140.384
1328180669059,140.344
1328180729059,140.264
1328180789059,140.262
1328180849059,140.098
1328180909059,140.379
1328180969059,140.305
1328181029059,140.562
1328181089059,140.453
1328181149059,140.302
1328181209059,140.101
1328181269059,140.441
1328181329059,140.164
1328181389059,140.420
1328181449059,140.443
1328181509059,140.522
1328181569059,140.415
1328181629059,140.550
1328181689059,140.401
1328181749059,140.223
1328181809059,140.391
1328181869059,140.206
1328181929059,140.189
1328181989059,140.134
1328182049059,140.220
1328182109059,140.412
1328182169059,140.203
1328182229059,139.920
1328182289059,140.191
1328182349059,140.254
1328182409059,140.115
1328182469059,140.062
1328182529059,140.103
1328182589059,140.107
1328182649059,140.248
1328182709059,140.288
1328182769059,139.834
1328182829059,139.954
1328182889059,139.699
1328182949059,139.906
1328183009059,139.821
1328183069059,140.151
1328183129059,139.713
1328183189059,140.186
1328183249059,140.151
1328183309059,139.958
1328183369059,140.162
1328183429059,140.019
1328183489059,139.552
1328183549059,139.982
1328183609059,140.070
1328183669059,139.936
1328183729059,140.214
1328183789059,139.712
1328183849059,139.747
1328183909059,139.848
1328183969059,140.038
1328184029071,139.903
1328184089071,140.028
1328184149071,139.663
1328184209071,139.679
1328184269071,139.764
1328184329071,140.100
1328184389071,139.899
1328184449071,139.499
1328184509071,139.389
1328184569071,139.657
1328184629071,139.547
1328184689071,139.739
1328184749071,139.492
1328184809071,139.654
1328184869071,139.492
1328184929071,139.667
1328184989071,139.890
1328185049071,139.699
1328185109071,139.543
1328185169071,139.434
1328185229071,139.682
1328185289071,139.673
1328185349071,139.410
1328185409071,139.536
1328185469071,139.381
1328185529071,139.315
1328185589071,139.415
1328185649071,139.118
1328185709071,139.335
1328185769071,139.596
1328185829071,139.625
1328185889071,139.370
1328185949071,139.232
1328186009071,139.453
1328186069071,139.232
1328186129071,139.269
1328186189071,139.235
1328186249071,139.167
1328186309071,139.287
1328186369071,139.447
1328186429071,139.102
1328186489071,139.051
1328186549071,139.313
1328186609071,139.237
1328186669071,139.436
1328186729071,139.422
1328186789071,139.272
1328186849071,138.992
1328186909071,138.946
1328186969071,139.181
1328187029071,139.164
1328187089071,138.891
1328187149071,139.409
1328187209071,138.968
1328187269071,139.289
1328187329071,139.437
1328187389071,139.381
1328187449071,139.325
1328187509071,139.361
1328187569071,139.476
1328187629099,139.394
1328187689099,139.124
1328187749099,139.241
1328187809099,139.343
1328187869099,139.254
1328187929099,139.489
1328187989099,139.245
1328188049099,139.263
1328188109099,139.397
1328188169099,139.392
1328188229099,139.520
1328188289099,139.692
1328188349099,139.324
1328188409099,139.401
1328188469099,139.469
1328188529099,139.568
1328188589099,139.935
1328188649099,139.556
1328188709099,139.514
1328188769099,139.556
1328188829099,139.689
1328188889099,139.527
1328188949099,139.517
1328189009099,139.673
1328189069099,139.730
1328189129099,139.626
1328189189099,139.817
1328189249099,139.982
1328189309099,140.014
1328189369099,139.693
1328189429099,139.551
1328189489099,139.676
1328189549099,139.623
1328189609099,139.582
1328189669099,139.399
1328189729099,139.373
1328189789099,139.503
1328189849099,139.308
1328189909099,139.621
1328189969099,139.383
1328190029099,139.581
1328190089099,139.455
1328190149099,139.676
1328190209099,139.605
1328190269099,139.615
1328190329099,139.589
1328190389099,139.546
1328190449099,139.807
1328190509099,139.512
1328190569099,139.454
1328190629099,139.549
1328190689099,139.617
1328190749099,139.429
1328190809099,139.691
1328190869099,139.611
1328190929099,139.352
1328190989099,139.218
1328191049099,139.416
1328191109099,139.516
1328191169099,139.657
1328191229110,139.746
1328191289110,139.465
1328191349110,139.261
1328191409110,139.571
1328191469110,139.457
1328191529110,139.201
1328191589110,139.140
1328191649110,139.449
1328191709110,139.351
1328191769110,139.291
1328191829110,139.257
1328191889110,139.233
1328191949110,139.303
1328192009110,139.210
1328192069110,138.959
1328192129110,139.003
1328192189110,139.230
1328192249110,138.950
1328192309110,139.182
1328192369110,138.921
1328192429110,139.094
1328192489110,138.835
1328192549110,139.100
1328192609110,139.176
1328192669110,139.023
1328192729110,138.955
1328192789110,139.221
1328192849110,138.848
1328192909110,139.169
1328192969110,139.004
1328193029110,139.096
1328193089110,138.873
1328193149110,138.630
1328193209110,139.041
1328193269110,139.360
1328193329110,139.098
1328193389110,138.899
1328193449110,138.905
1328193509110,139.079
1328193569110,138.807
1328193629110,139.274
1328193689110,139.193
1328193749110,138.923
1328193809110,138.793
1328193869110,138.702
1328193929110,138.906
1328193989110,139.042
1328194049110,138.700
1328194109110,138.628
1328194169110,138.738
1328194229110,138.755
1328194289110,138.818
1328194349110,138.504
1328194409110,138.778
1328194469110,138.531
1328194529110,138.519
1328194589110,138.562
1328194649110,138.468
1328194709110,138.439
1328194769110,138.235
1328194829122,138.289
1328194889122,138.265
1328194949122,138.170
1328195009122,138.357
1328195069122,138.113
1328195129122,138.277
1328195189122,138.309
1328195249122,138.197
1328195309122,138.486
1328195369122,138.300
1328195429122,138.380
1328195489122,138.171
1328195549122,137.998
1328195609122,138.283
1328195669122,138.068
1328195729122,138.045
1328195789122,138.024
1328195849122,137.715
1328195909122,137.776
1328195969122,137.968
1328196029122,137.966
1328196089122,137.606
1328196149122,137.668
1328196209122,137.959
1328196269122,137.948
1328196329122,137.862
1328196389122,137.785
1328196449122,137.803
1328196509122,137.889
1328196569122,138.024
1328196629122,138.031
1328196689122,138.038
1328196749122,138.060
1328196809122,137.850
1328196869122,137.783
1328196929122,138.007
1328196989122,138.041
1328197049122,137.840
1328197109122,137.604
1328197169122,137.813
1328197229122,138.049
1328197289122,137.502
1328197349122,137.549
1328197409122,137.691
1328197469122,137.581
1328197529122,137.658
1328197589122,137.810
1328197649122,137.441
1328197709122,137.465
1328197769122,137.448
1328197829122,137.392
1328197889122,137.543
1328197949122,137.789
1328198009122,137.561
1328198069122,137.682
1328198129122,137.475
1328198189122,137.476
1328198249122,137.696
1328198309122,137.541
1328198369122,137.458
1328198429134,137.707
1328198489134,137.573
1328198549134,137.522
1328198609134,137.730
1328198669134,137.792
1328198729134,137.544
1328198789134,137.582
1328198849134,137.327
1328198909134,137.495
1328198969134,137.967
1328199029134,137.626
1328199089134,137.456
1328199149134,137.609
1328199209134,137.459
1328199269134,137.533
1328199329134,137.744
1328199389134,137.372
1328199449134,137.709
1328199509134,137.469
1328199569134,137.825
1328199629134,137.777
1328199689134,137.800
1328199749134,137.889
1328199809134,138.068
1328199869134,137.845
1328199929134,137.640
1328199989134,137.574
1328200049134,137.746
1328200109134,138.086
1328200169134,137.846
1328200229134,137.603
1328200289134,137.733
1328200349134,137.802
1328200409134,137.633
1328200469134,137.900
1328200529134,137.876
1328200589134,137.709
1328200649134,137.444
1328200709134,137.831
1328200769134,138.051
1328200829134,137.854
1328200889134,138.227
1328200949134,137.723
1328201009134,138.110
1328201069134,137.986
1328201129134,138.037
1328201189134,137.988
1328201249134,137.857
1328201309134,138.225
1328201369134,138.218
1328201429134,137.963
1328201489134,137.981
1328201549134,138.047
1328201609134,137.756
1328201669134,137.712
1328201729134,138.349
1328201789134,137.927
1328201849134,138.044
1328201909134,137.913
1328201969134,138.070
1328202029145,137.982
1328202089145,138.059
1328202149145,137.999
1328202209145,137.984
1328202269145,137.999
1328202329145,137.948
1328202389145,137.901
1328202449145,138.144
1328202509145,138.007
1328202569145,137.878
1328202629145,138.075
1328202689145,137.736
1328202749145,138.267
1328202809145,137.909
1328202869145,137.879
1328202929145,137.819
1328202989145,138.187
1328203049145,138.064
1328203109145,138.076
1328203169145,137.981
1328203229145,137.728
1328203289145,137.838
1328203349145,138.059
1328203409145,138.195
1328203469145,138.059
1328203529145,138.154
1328203589145,138.140
1328203649145,137.887
1328203709145,138.141
1328203769145,138.132
1328203829145,138.298
1328203889145,138.052
1328203949145,138.055
1328204009145,138.160
1328204069145,138.133
1328204129145,138.185
1328204189145,137.861
1328204249145,138.254
1328204309145,138.004
1328204369145,138.194
1328204429145,138.045
1328204489145,138.016
1328204549145,138.130
1328204609145,138.252
1328204669145,138.347
1328204729145,137.999
1328204789145,138.406
1328204849145,137.916
1328204909145,138.459
1328204969145,137.913
1328205029145,138.088
1328205089145,138.160
1328205149145,138.118
1328205209145,138.097
1328205269145,138.180
1328205329145,137.976
1328205389145,138.275
1328205449145,138.136
1328205509145,138.445
1328205569145,138.431
1328205629156,138.174
1328205689156,138.238
1328205749156,138.170
1328205809156,138.286
1328205869156,138.055
1328205929156,138.495
1328205989156,138.263
1328206049156,138.263
1328206109156,138.293
1328206169156,138.465